STARLINK-3918 (52486 NORAD) Tracking and Keplerian Element Data

This shows tracking and keplerian element data for the satellite.

Feedback or suggestion? Click here.




ElementValue
Catalog52486
NameSTARLINK-3918
Epoch Orbit130
Epoch Day167.08334491
Epoch Year2022
RAAN64.9765
Inclination53.218
Eccentricity0.0001922
Argument of Perigee31.3441
Mean Anonmoly119.4782
Mean Motion15.73256285
Decay Rate-0.00019795
L11 52486U 22049AM 22167.08334491 -.00019795 00000+0 -13660-3 0 9993
L22 52486 53.2180 64.9765 0001922 31.3441 119.4782 15.73256285 1303

Live tracking and technical data element details for STARLINK-3918 (NORAD 52486). STARLINK-3918 can be tracked NOW for your location showing map with azimuth and elevation plus other details from your city location.

Track the satellite on the map from your city or location and see movement details for azimuth, elevation, latitude, longitude, range, height, and movement on the map or in text.







IsCatalogInMostPopularTable: catalog: 52486, numindb: 1
Update: records affected: 1



GetName: 52486 STARLINK-3918

Hit Count: updated at: Mon, 27 Jun 2022 05:24:40 GMT